Regional Weather Roundup
Issued by NWS State College, PA

Home | Current Version | Previous Version | Text Only | Print | Product List | Glossary Off
Versions: 1 2 3 4 5 6 7 8 9 10 11 12 13 14 15 16 17 18 19 20 21 22 23 24 25 26 27 28 29 30 31 32 33 34 35 36 37 38 39 40 41 42 43 44 45 46 47 48 49 50

000
ASUS41 KCTP 200503
RWRCTP

REGIONAL WEATHER ROUNDUP
NATIONAL WEATHER SERVICE STATE COLLEGE PA
100 AM EDT WED AUG 20 2014

Note: "fair" indicates few or no clouds below 12,000 feet with no
significant weather and/or obstructions to visibility.

* = STATION THAT DOES NOT REPORT PRECIPITATION /E.G. RAIN...SNOW...ETC/
    THUNDER OR FOG.

PAZ002>004-007>009-013>016-020>023-029>032-200600-
WESTERN PENNSYLVANIA

CITY           SKY/WX    TMP DP  RH WIND       PRES   REMARKS
ERIE           LGT RAIN  67  63  87 S12       29.87F
MEADVILLE      LGT RAIN  65  63  93 E7        29.93S
FRANKLIN*      CLOUDY    66  61  82 NW10      29.97R
NEW CASTLE     NOT AVBL
BEAVER COUNTY  NOT AVBL
BUTLER*        MOCLDY    70  61  73 NW7       29.95R
PITTSBURGH INT CLOUDY    73  66  78 N14G22    29.91R
PITTSBURGH     PTCLDY    70  65  84 S6        29.90R
INDIANA*       MOCLDY    72  66  83 S6        29.96S
LATROBE        CLEAR     68  68 100 CALM      29.92S
WASHINGTON CO*   N/A     64  63  94 CALM      29.91R VSB 3/4
$$

PAZ004>006-010>012-017>019-024>028-033>037-041-042-045-046-049>053-200600-
CENTRAL PENNSYLVANIA

CITY           SKY/WX    TMP DP  RH WIND       PRES   REMARKS
BRADFORD       PTCLDY    62  61  96 SE3       29.95S FOG
DUBOIS         CLEAR     67  65  93 SE6       29.93S
CLEARFIELD     CLEAR     62  62 100 N3        29.95S FOG
JOHNSTOWN      CLEAR     67  64  90 S7        29.97S
ALTOONA        PTCLDY    65  64  97 CALM      29.96S FOG
STATE COLLEGE  MOCLDY    65  64  96 CALM      29.94S FOG
WILLIAMSPORT   MOCLDY    67  62  84 CALM      29.91S
SELINSGROVE    CLEAR     64  62  93 CALM      29.92F FOG
FT INDIANTOWN  PTCLDY    69  69 100 NE3       29.93S
CAPITAL CITY   CLOUDY    73  65  75 E5        29.92S
HARRISBURG     MOCLDY    73  67  81 CALM      29.91S
YORK           MOCLDY    73  64  73 CALM      29.93S
$$

PAZ038>040-043-044-047-048-054-055-060>062-067>071-200600-
EASTERN PENNSYLVANIA

CITY           SKY/WX    TMP DP  RH WIND       PRES   REMARKS
SCRANTON       CLOUDY    71  61  70 CALM      29.94R
MOUNT POCONO   PTCLDY    64  60  87 SE6       29.99S
ALLENTOWN      CLEAR     73  63  70 S5        29.94R
QUAKERTOWN*    PTCLDY    68  64  88 CALM      29.96R
READING        CLOUDY    74  62  66 S3        29.93R
LANCASTER      CLOUDY    70  64  81 E3        29.93S
COATESVILLE    PTCLDY    66  66 100 CALM      29.96S
POTTSTOWN      MOCLDY    71  64  78 S5        29.96R
BLUE BELL      MOCLDY    72  63  73 CALM      29.93S
DOYLESTOWN     MOCLDY    68  63  84 CALM      29.94S
WILLOW GROVE   NOT AVBL
NORTH PHILA    MOCLDY    72  61  68 SE5       29.95S
PHILADELPHIA   CLOUDY    73  63  70 S3        29.94R
$$



USA.gov is the U.S. government's official web portal to all federal, state and local government web resources and services.